Погода в Барановке

Россия / Саратовская область     52°07′04″N   46°55′51″E
темп.,
°C
ветер,
м/с
пор.,
м/с
влажн.,
%
обл.,
%
осадки,
мм/ч
давл.,
гПа
погр.,
м
21 апреля, ср
ср2101:00+6юв112081100 2.3 1019766
04:00+5юв112076100 6.2 1018806
07:00+5юв101872100 0.0 1018745
10:00+6юв101677100 0.0 1018867
13:00+6юв91584100 0.3 1019764
16:00+5юв91690100 0.3 1019598
19:00+5ююв71491100 0.0 1019525
22:00+5ююв61294100 0.0 1021479
22 апреля, чт
чт2201:00+6ююв2798100 0.0 1021331
04:00+6юв3798100 0.0 1022253
07:00+6вюв249372 0.0 1023167
10:00+11юв347748 0.0 1023477
13:00+15ю44585 0.4 10231123
16:00+16ю345331 1.5 10221359
19:00+13вюв236614 1.3 102285
22:00+10юв358112 1.8 102493
23 апреля, пт
пт2301:00+8юв33849 0.0 102469
04:00+6вюв22915 0.0 102429
07:00+7в2391100 0.0 1025118
10:00+11в337199 0.0 1024474
13:00+14в4462100 0.0 1023855
16:00+14в5560100 0.0 1021959
19:00+12всв3568100 0.0 1020178
22:00+10всв2274100 0.0 101915
24 апреля, сб
сб2401:00+9юв2282100 0.0 101843
04:00+8вюв2284100 0.0 101627
07:00+8вюв238399 0.0 1016123
10:00+11ю337157 0.0 1015903
13:00+14ююз345576 0.0 10131443
16:00+16юз585399 0.7 10121640
19:00+15ю495954 0.1 1011283
22:00+10зсз6108483 0.4 1012573
25 апреля, вс
вс2501:00+8з610795 1.9 1013705
04:00+5юз38890 1.9 1014229
07:00+6юз37830 0.0 1015263
10:00+10ююз575558 0.0 10151075
13:00+10зюз9136877 0.6 10141479
16:00+11зюз91148100 0.9 10142144
19:00+8з596598 0.1 10161096
22:00+6зюз117497 0.1 101710